Location: Gälforsberget
(66.6500°N, 22.4167°E)
Time: 17:29:18
(UTC+00:00)

Okean O Rocket - Pass Details

Date: 11 April 2026
Orbit: 613 x 635 km, 98.0° (Epoch: 16 May)

Event Time Altitude Azimuth Distance (km) Brightness Sun altitude
Rises 19:07:01 0° 172° (S) 2,914 4.6 -6.3°
Reaches altitude 10° 19:09:15 10° 177° (S) 2,007 3.8 -6.5°
Maximum altitude 19:13:33 57° 256° (WSW) 746 2.2 -6.8°
Drops below altitude 10° 19:17:52 10° 336° (NNW) 2,006 5.4 -7.1°
Sets 19:20:06 0° 340° (NNW) 2,913 6.3 -7.3°
